Regional Weather Roundup
Issued by NWS

Current Version | Previous Version | Text Only | Print | Product List | Glossary On
Versions: 1 2 3 4 5 6 7 8 9 10 11 12 13 14 15 16 17 18 19 20 21 22 23 24 25 26 27 28 29 30 31 32 33 34 35 36 37 38 39 40 41 42 43 44 45 46 47 48 49 50
000
ASUS43 KBIS 102110
RWRND

NORTH DAKOTA REGIONAL WEATHER ROUNDUP
NATIONAL WEATHER SERVICE BISMARCK ND
300 PM CST SAT DEC 10 2016

NOTE: "FAIR" INDICATES FEW OR NO CLOUDS BELOW 12,000 FEET WITH NO
SIGNIFICANT WEATHER AND/OR OBSTRUCTIONS TO VISIBILITY.


NDZ001>003-009>011-017-102200-
NORTHWEST NORTH DAKOTA

CITY           SKY/WX    TMP DP  RH WIND       PRES   REMARKS
WILLISTON      FLURRIES   2  -6  69 SE16      30.00F WCI -18
MINOT          CLOUDY    -8 -13  78 E9        30.13F WCI -25
$$

NDZ018>021-031>035-040>046-102200-
SOUTHWEST NORTH DAKOTA

CITY           SKY/WX    TMP DP  RH WIND       PRES   REMARKS
BISMARCK       LGT SNOW  -4  -8  83 E9        30.13F FOG     WCI -20
DICKINSON      CLOUDY    -1  -7  75 E18       29.88F WCI -22
GARRISON         N/A     -5 -10  79 E12       30.09F WCI -23
HETTINGER ARPT CLOUDY    -1  -6  79 SE15      29.90F WCI -21
$$

NDZ004>008-012>016-024-026-027-054-102200-
NORTHEAST NORTH DAKOTA

CITY           SKY/WX    TMP DP  RH WIND       PRES   REMARKS
GRAND FORKS    CLOUDY    -2  -9  72 SE5       30.36F WCI -12
GRND FRKS AFB  CLOUDY    -2  -9  71 E6        30.33F WCI -14
DEVILS LAKE    CLOUDY    -5  -9  83 SE8       30.23F WCI -20
$$

NDZ022-023-025-028>030-036>039-047>053-102200-
SOUTHEAST NORTH DAKOTA

CITY           SKY/WX    TMP DP  RH WIND       PRES   REMARKS
FARGO          CLOUDY     2  -7  66 E7        30.32F HAZE    WCI -11
JAMESTOWN      CLOUDY    -2  -7  79 SE12      30.19F WCI -20
$$





USA.gov is the U.S. government's official web portal to all federal, state and local government web resources and services.